Regional Weather Roundup
Issued by NWS

Current Version | Previous Version | Text Only | Print | Product List | Glossary On
Versions: 1 2 3 4 5 6 7 8 9 10 11 12 13 14 15 16 17 18 19 20 21 22 23 24 25 26 27 28 29 30 31 32 33 34 35 36 37 38 39 40 41 42 43 44 45 46 47 48 49 50
000
ASCA42 TJSJ 220411
RWRPR
PUERTO RICO/U.S. VIRGIN ISLANDS HOURLY WEATHER ROUNDUP
NATIONAL WEATHER SERVICE SAN JUAN PR
1200 AM AST MON DEC 22 2014

PRZ001-004-220500-
PUERTO RICO

CITY           SKY/WX    TMP DP  RH WIND       PRES   REMARKS
SAN JUAN LMM   PTCLDY    75  68  78 CALM      30.07F
AGUADILLA      CLEAR     72  64  78 E8        30.08F
CEIBA          PTCLDY    79  66  65 NE7       30.09F
$$

PRZ006-007-220500-
U.S. VIRGIN ISLANDS

CITY           SKY/WX    TMP DP  RH WIND       PRES   REMARKS
$$

HOURLY WEATHER ROUNDUP FOR THE NEWS MEDIA

CITY           SKY/WX    TMP DP  RH WIND       PRES   REMARKS
MIAMI          MOCLDY    72  65  78 E6        30.04F
ORLANDO        CLOUDY    68  67  96 N3        30.05R
NEW YORK       CLOUDY    37  30  75 N7        30.34S WCI  32
NEWARK         CLOUDY    34  29  82 N8        30.34R WCI  27
CHICAGO        MOCLDY    34  28  79 S12       30.03F WCI  25
HARTFORD       CLOUDY    35  33  92 N6        30.33S WCI  30
BOSTON         CLOUDY    34  25  69 N6        30.37S WCI  29
DALLAS         CLOUDY    52  47  83 S16       29.78F
PHILADELPHIA   PTCLDY    31  22  69 NW5       30.35S WCI  26


USA.gov is the U.S. government's official web portal to all federal, state and local government web resources and services.